This is the latest recevied weather packets stored in our database for station/object DM3FAM-13. If no packets are shown the sender has not sent any weather packets the latest 10 day(s).
| Time | Temp. | Humidity | Pressure | Rain* | Wind** | Luminosity | Snow |
|---|---|---|---|---|---|---|---|
| 1777444830 | 11.67° C | 60% | 1018.4 hPa | 0 mm | - | 49 W/m² | - |
| 1777444230 | 11.11° C | 65% | 1018.4 hPa | 0 mm | - | 42 W/m² | - |
| 1777443631 | 12.22° C | 57% | 1018.4 hPa | 0 mm | - | 40 W/m² | - |
| 1777443030 | 12.78° C | 56% | 1018.2 hPa | 0 mm | - | 47 W/m² | - |
| 1777442431 | 12.22° C | 60% | 1018.1 hPa | 0 mm | - | 42 W/m² | - |
| 1777441831 | 12.22° C | 60% | 1017.9 hPa | 0 mm | - | 38 W/m² | - |
| 1777441231 | 11.67° C | 60% | 1018.2 hPa | 0 mm | - | 30 W/m² | - |
| 1777440631 | 11.67° C | 61% | 1018 hPa | 0 mm | - | 21 W/m² | - |
| 1777440030 | 11.67° C | 61% | 1017.9 hPa | 0 mm | - | 17 W/m² | - |
| 1777439430 | 11.11° C | 61% | 1017.9 hPa | 0 mm | - | 20 W/m² | - |
| 1777438831 | 11.11° C | 63% | 1017.9 hPa | 0 mm | - | 13 W/m² | - |
| 1777415430 | 11.11° C | 71% | 1017 hPa | 0 mm | - | 0 W/m² | - |
| 1777414830 | 11.11° C | 71% | 1017 hPa | 0 mm | - | 0 W/m² | - |
| 1777414230 | 11.67° C | 71% | 1017 hPa | 0 mm | - | 0 W/m² | - |
| 1777411830 | 11.67° C | 72% | 1016.8 hPa | 0 mm | - | 0 W/m² | - |
| 1777411230 | 11.67° C | 70% | 1016.8 hPa | 0 mm | - | 0 W/m² | - |
| 1777410630 | 11.67° C | 69% | 1016.7 hPa | 0 mm | - | 0 W/m² | - |
| 1777410031 | 11.67° C | 71% | 1016.7 hPa | 0 mm | - | 0 W/m² | - |
| 1777408231 | 10.56° C | 75% | 1016.5 hPa | 0 mm | - | 0 W/m² | - |
| 1777407630 | 10.56° C | 74% | 1016.5 hPa | 0 mm | - | 0 W/m² | - |
| 1777406432 | 11.11° C | 73% | 1016.3 hPa | 0 mm | - | 0 W/m² | - |
| 1777403430 | 12.22° C | 74% | 1015.9 hPa | 0 mm | - | 0 W/m² | - |
| 1777401031 | 13.89° C | 75% | 1015.7 hPa | 0 mm | - | 2 W/m² | - |
| 1777400431 | 14.44° C | 74% | 1015.6 hPa | 0 mm | - | 5 W/m² | - |
| 1777399230 | 15.56° C | 75% | 1015.6 hPa | 0 mm | - | 13 W/m² | - |
* Rain latest hour (hover to see other rain measurements)
** Current wind speed in m/s (hover to see current wind gust speed)